This is the latest recevied weather packets stored in our database for station/object WB4YDL. If no packets are shown the sender has not sent any weather packets the latest 10 day(s).
| Time | Temp. | Humidity | Pressure | Rain* | Wind** | Luminosity | Snow |
|---|---|---|---|---|---|---|---|
| 1778181335 | 18.33° C | 46% | 1011.3 hPa | 0 mm | - | 778 W/m² | - |
| 1778181032 | 18.33° C | 53% | 1011.1 hPa | 0 mm | - | 786 W/m² | - |
| 1778180730 | 17.78° C | 50% | 1011.3 hPa | 0 mm | - | 786 W/m² | - |
| 1778180429 | 17.78° C | 44% | 1011.3 hPa | 0 mm | - | 797 W/m² | - |
| 1778180127 | 18.33° C | 47% | 1011.4 hPa | 0 mm | - | 803 W/m² | - |
| 1778179822 | 17.78° C | 50% | 1011.6 hPa | 0 mm | - | 808 W/m² | - |
| 1778179521 | 18.89° C | 49% | 1011.6 hPa | 0 mm | - | 812 W/m² | - |
| 1778179219 | 18.33° C | 42% | 1011.7 hPa | 0 mm | - | 818 W/m² | - |
| 1778178914 | 17.78° C | 47% | 1011.7 hPa | 0 mm | - | 826 W/m² | - |
| 1778178612 | 17.78° C | 46% | 1011.6 hPa | 0 mm | - | 831 W/m² | - |
| 1778178308 | 17.78° C | 50% | 1011.9 hPa | 0 mm | - | 835 W/m² | - |
| 1778178004 | 17.78° C | 46% | 1011.6 hPa | 0 mm | - | 838 W/m² | - |
| 1778177701 | 18.33° C | 44% | 1011.5 hPa | 0 mm | - | 839 W/m² | - |
| 1778177396 | 17.78° C | 45% | 1011.7 hPa | 0 mm | - | 842 W/m² | - |
| 1778177093 | 17.22° C | 46% | 1012 hPa | 0 mm | - | 846 W/m² | - |
| 1778176789 | 18.33° C | 45% | 1011.9 hPa | 0 mm | - | 847 W/m² | - |
| 1778176486 | 17.22° C | 50% | 1011.8 hPa | 0 mm | - | 850 W/m² | - |
| 1778176184 | 17.78° C | 48% | 1012 hPa | 0 mm | - | 850 W/m² | - |
| 1778175881 | 17.78° C | 50% | 1011.9 hPa | 0 mm | - | 848 W/m² | - |
| 1778175578 | 17.22° C | 50% | 1012.1 hPa | 0 mm | - | 848 W/m² | - |
| 1778175275 | 17.22° C | 49% | 1012 hPa | 0 mm | - | 850 W/m² | - |
| 1778174973 | 17.78° C | 46% | 1012.4 hPa | 0 mm | - | 849 W/m² | - |
| 1778174669 | 17.22° C | 50% | 1012.3 hPa | 0 mm | - | 847 W/m² | - |
| 1778174365 | 17.22° C | 49% | 1012.3 hPa | 0 mm | - | 842 W/m² | - |
| 1778174061 | 17.22° C | 49% | 1012.4 hPa | 0 mm | - | 842 W/m² | - |
* Rain latest hour (hover to see other rain measurements)
** Current wind speed in m/s (hover to see current wind gust speed)